Wray Municipal Airport, CO

8:54 PM MDT on October 18, 2017 (GMT -0600)
Wray Municipal Airport

Weather History for K2V5 - March, 2014

Change the Weather History Date:

Thursday, March 20, 2014

  Actual Average (KSYF) Record (KSYF)
Temperature  
Mean Temperature 48 °F -  
Max Temperature 70 °F 57 °F 73 °F (2017)
Min Temperature 26 °F 27 °F 11 °F (2016)
Degree Days  
Heating Degree Days 17    
Moisture  
Dew Point 16 °F    
Average Humidity 37    
Maximum Humidity 82    
Minimum Humidity 8    
Precipitation  
Precipitation 0.00 in - - ()
Sea Level Pressure  
Sea Level Pressure 29.90 in    
Wind  
Wind Speed 7 mph (SW)    
Max Wind Speed 14 mph    
Max Gust Speed 20 mph    
Visibility 10 miles    
Events      
Averages and records for this station are not official NWS values.
T = Trace of Precipitation, MM = Missing Value Source: NWS Daily Summary

Daily Weather History Graph

Daily Weather History Graph

Search for Another Location

Airport or City:

Trip Planner

Search our weather history database for the weather conditions in past years. The results will help you decide how hot, cold, wet, or windy it might be!

Date:

Astronomy

Mar. 20, 2014 Rise Set
Actual Time 6:52 AM MDT 7:01 PM MDT
Civil Twilight 6:25 AM MDT 7:28 PM MDT
Nautical Twilight 5:53 AM MDT 7:59 PM MDT
Astronomical Twilight 5:21 AM MDT 8:32 PM MDT
Moon 11:23 PM MDT (3/20) 8:59 AM MDT (3/20)
Length of Visible Light 13h 02m
Length of Day
12h 08m
Waning Gibbous, 83% of the Moon is Illuminated
Mar 20
Waning Gibbous
Mar 23
Last Quarter
Mar 30
New
Apr 7
First Quarter
Apr 15
Full

Hourly Weather History & Observations

Time (MDT) Temp. Windchill Dew Point Humidity Pressure Visibility Wind Dir Wind Speed Gust Speed Precip Events Conditions
12:15 AM 35.2 °F 29.5 °F 18.3 °F 50% 30.00 in 10.0 mi SSW 6.9 mph - N/A   Clear
12:35 AM 36.7 °F 32.0 °F 17.8 °F 46% 29.99 in 10.0 mi SSW 5.8 mph - N/A   Clear
12:55 AM 34.3 °F 29.2 °F 19.0 °F 54% 29.99 in 10.0 mi SW 5.8 mph - N/A   Clear
1:15 AM 31.8 °F 26.2 °F 20.3 °F 62% 29.99 in 10.0 mi WSW 5.8 mph - N/A   Clear
1:35 AM 31.8 °F 27.3 °F 20.8 °F 64% 29.98 in 10.0 mi WSW 4.6 mph - N/A   Clear
1:55 AM 29.3 °F 21.5 °F 21.0 °F 71% 29.97 in 10.0 mi WSW 8.1 mph - N/A   Clear
2:15 AM 30.2 °F 22.6 °F 21.2 °F 69% 29.97 in 10.0 mi WSW 8.1 mph - N/A   Clear
2:35 AM 30.0 °F 21.7 °F 21.9 °F 72% 29.96 in 10.0 mi West 9.2 mph - N/A   Clear
2:55 AM 29.1 °F 20.0 °F 21.2 °F 72% 29.96 in 10.0 mi WSW 10.4 mph - N/A   Clear
3:15 AM 31.1 °F 23.1 °F 21.0 °F 66% 29.95 in 10.0 mi WSW 9.2 mph - N/A   Clear
3:35 AM 30.2 °F 21.3 °F 20.8 °F 68% 29.95 in 10.0 mi WSW 10.4 mph - N/A   Clear
3:55 AM 30.0 °F 21.1 °F 20.3 °F 67% 29.95 in 10.0 mi West 10.4 mph - N/A   Clear
4:15 AM 30.7 °F 23.3 °F 20.5 °F 66% 29.96 in 10.0 mi WSW 8.1 mph - N/A   Clear
4:35 AM 29.5 °F 21.8 °F 20.5 °F 69% 29.96 in 10.0 mi West 8.1 mph - N/A   Clear
4:55 AM 29.3 °F 22.3 °F 21.4 °F 72% 29.96 in 10.0 mi WSW 6.9 mph - N/A   Clear
5:15 AM 27.9 °F - 21.2 °F 76% 29.96 in 10.0 mi North - - N/A   Clear
5:35 AM 27.9 °F - 21.6 °F 77% 29.96 in 10.0 mi North - - N/A   Clear
5:55 AM 27.1 °F 20.7 °F 21.2 °F 78% 29.97 in 10.0 mi WSW 5.8 mph - N/A   Clear
6:15 AM 26.4 °F 19.8 °F 21.4 °F 81% 29.97 in 10.0 mi WSW 5.8 mph - N/A   Clear
6:35 AM 26.2 °F 18.6 °F 21.6 °F 82% 29.97 in 10.0 mi WSW 6.9 mph - N/A   Clear
6:55 AM 26.2 °F 17.8 °F 21.2 °F 81% 29.97 in 10.0 mi West 8.1 mph - N/A   Clear
7:15 AM 26.6 °F 20.0 °F 21.6 °F 81% 29.98 in 10.0 mi WSW 5.8 mph - N/A   Clear
7:35 AM 27.7 °F 21.3 °F 22.5 °F 81% 29.98 in 10.0 mi West 5.8 mph - N/A   Clear
7:55 AM 32.0 °F 23.6 °F 23.7 °F 71% 29.98 in 10.0 mi WSW 10.4 mph - N/A   Clear
8:15 AM 35.1 °F 29.3 °F 24.4 °F 65% 29.99 in 10.0 mi West 6.9 mph - N/A   Clear
8:35 AM 39.0 °F 33.4 °F 25.2 °F 58% 29.99 in 10.0 mi West 8.1 mph - N/A   Clear
8:55 AM 41.4 °F 37.6 °F 25.7 °F 54% 29.99 in 10.0 mi WSW 5.8 mph - N/A   Clear
9:15 AM 45.9 °F 41.7 °F 25.5 °F 45% 29.99 in 10.0 mi West 8.1 mph - N/A   Clear
9:35 AM 49.8 °F - 22.8 °F 35% 29.99 in 10.0 mi WNW 5.8 mph - N/A   Clear
9:55 AM 52.3 °F - 20.5 °F 29% 29.99 in 10.0 mi West 6.9 mph - N/A   Clear
10:15 AM 55.0 °F - 20.3 °F 26% 29.98 in 10.0 mi West 5.8 mph - N/A   Clear
10:35 AM 57.4 °F - 19.8 °F 23% 29.97 in 10.0 mi WNW 5.8 mph - N/A   Clear
10:55 AM 59.4 °F - 13.1 °F 16% 29.96 in 10.0 mi NW 10.4 mph 17.3 mph N/A   Clear
11:15 AM 59.2 °F - 12.9 °F 16% 29.95 in 10.0 mi WNW 6.9 mph - N/A   Clear
11:35 AM 61.2 °F - 13.5 °F 16% 29.94 in 10.0 mi NNW 9.2 mph - N/A   Clear
11:55 AM 61.9 °F - 11.5 °F 14% 29.93 in 10.0 mi North 9.2 mph - N/A   Clear
12:15 PM 63.5 °F - 11.1 °F 13% 29.92 in 10.0 mi West 8.1 mph - N/A   Clear
12:35 PM 63.5 °F - 10.8 °F 13% 29.92 in 10.0 mi SW 3.5 mph - N/A   Clear
12:55 PM 62.1 °F - 9.7 °F 13% 29.91 in 10.0 mi West 3.5 mph - N/A   Clear
1:15 PM 64.4 °F - 10.0 °F 12% 29.90 in 10.0 mi SSW 8.1 mph - N/A   Clear
1:35 PM 64.2 °F - 10.6 °F 12% 29.89 in 10.0 mi South 6.9 mph - N/A   Clear
1:55 PM 66.0 °F - 11.8 °F 12% 29.88 in 10.0 mi SSW 6.9 mph - N/A   Clear
2:15 PM 67.3 °F - 10.2 °F 11% 29.86 in 10.0 mi SW 8.1 mph 17.3 mph N/A   Clear
2:35 PM 67.8 °F - 11.8 °F 11% 29.85 in 10.0 mi South 9.2 mph - N/A   Clear
2:55 PM 67.8 °F - 11.1 °F 11% 29.84 in 10.0 mi South 10.4 mph - N/A   Clear
3:15 PM 70.2 °F - 8.8 °F 9% 29.83 in 10.0 mi SSW 12.7 mph 16.1 mph N/A   Clear
3:35 PM 70.0 °F - 8.6 °F 9% 29.82 in 10.0 mi SSW 10.4 mph 19.6 mph N/A   Clear
3:55 PM 69.6 °F - 8.8 °F 9% 29.81 in 10.0 mi SSE 13.8 mph 19.6 mph N/A   Clear
4:15 PM 70.3 °F - 7.2 °F 9% 29.81 in 10.0 mi South 11.5 mph 19.6 mph N/A   Clear
4:35 PM 68.9 °F - 7.2 °F 9% 29.80 in 10.0 mi SSE 11.5 mph 17.3 mph N/A   Clear
4:55 PM 68.0 °F - 5.0 °F 8% 29.79 in 10.0 mi SSE 11.5 mph 18.4 mph N/A   Clear
5:15 PM 68.0 °F - 4.6 °F 8% 29.78 in 10.0 mi South 9.2 mph - N/A   Clear
5:35 PM 67.1 °F - 4.8 °F 9% 29.77 in 10.0 mi SSE 6.9 mph - N/A   Clear
5:55 PM 65.3 °F - 7.9 °F 11% 29.77 in 10.0 mi South 5.8 mph - N/A   Clear
6:15 PM 63.5 °F - 7.9 °F 11% 29.77 in 10.0 mi SSE 6.9 mph - N/A   Clear
6:35 PM 62.4 °F - 7.9 °F 12% 29.76 in 10.0 mi SSE 6.9 mph - N/A   Clear
6:55 PM 60.4 °F - 7.9 °F 12% 29.77 in 10.0 mi SSE 5.8 mph - N/A   Clear
7:15 PM 58.6 °F - 7.7 °F 13% 29.78 in 10.0 mi SSE 4.6 mph - N/A   Clear
7:35 PM 59.0 °F - 6.8 °F 13% 29.79 in 10.0 mi South 3.5 mph - N/A   Scattered Clouds
7:55 PM 57.4 °F - 9.3 °F 15% 29.79 in 10.0 mi SW 4.6 mph - N/A   Overcast
8:15 PM 56.1 °F - 10.2 °F 16% 29.79 in 10.0 mi SW 4.6 mph - N/A   Overcast
8:35 PM 54.9 °F - 13.1 °F 19% 29.80 in 10.0 mi SW 6.9 mph - N/A   Scattered Clouds
8:55 PM 53.1 °F - 15.1 °F 22% 29.80 in 10.0 mi West 8.1 mph - N/A   Clear
9:15 PM 53.1 °F - 15.1 °F 22% 29.80 in 10.0 mi WSW 6.9 mph - N/A   Clear
9:35 PM 51.6 °F - 15.8 °F 24% 29.81 in 10.0 mi West 5.8 mph - N/A   Clear
9:55 PM 49.6 °F - 16.3 °F 27% 29.81 in 10.0 mi SW 6.9 mph - N/A   Clear
10:15 PM 48.6 °F - 17.2 °F 29% 29.81 in 10.0 mi WSW 5.8 mph - N/A   Clear
10:35 PM 47.5 °F - 17.4 °F 30% 29.81 in 10.0 mi West 4.6 mph - N/A   Clear
10:55 PM 46.6 °F - 16.5 °F 30% 29.82 in 10.0 mi North 5.8 mph - N/A   Clear
11:15 PM 46.9 °F - 16.3 °F 29% 29.82 in 10.0 mi Calm Calm - N/A   Clear
11:35 PM 46.8 °F - 15.8 °F 29% 29.82 in 10.0 mi Calm Calm - N/A   Clear
11:55 PM 44.8 °F - 16.5 °F 32% 29.82 in 10.0 mi Calm Calm - N/A   Clear